Retour au catalogue

SL-16 DEB

ActifLEO
NORAD 39907·DEBRIS·🇷🇺 Russia

Lancé Mar 26, 1993 depuis Baikonur Cosmodrome

Loading…

Prochains Passages (prochaines 24 heures)

TLE

FraisSource: Space-Track

Époque: Sep 13, 2026, 19:01 UTC

1 39907U 93016CH  26256.79251813  .00000204  00000-0  18891-3 0  9990
2 39907  70.9911 278.6003 0128337  35.3347 325.6183 13.89822509624076

Suivez SL-16 DEB en temps réel avec AllMySat

Download on the App Store